Printer-friendly version

IAU Minor Planet Center

Minor Planet Center

MPEC 2007-A19 : 2007 AG

The following Minor Planet Electronic Circular may be linked-to from your own Web pages, but must not otherwise be redistributed electronically.


Read MPEC 2007-A18 Read MPEC 2007-A20


M.P.E.C. 2007-A19                                Issued 2007 Jan. 8, 13:47 UT

     The Minor Planet Electronic Circulars contain information on unusual
         minor planets and routine data on comets.  They are published
   on behalf of Commission 20 of the International Astronomical Union by the
          Minor Planet Center, Smithsonian Astrophysical Observatory,
                          Cambridge, MA 02138, U.S.A.

             Prepared using the Tamkin Foundation Computer Network

                              MPC@CFA.HARVARD.EDU
          URL http://cfa-www.harvard.edu/iau/mpc.html  ISSN 1523-6714

                                    2007 AG

Observations:
     K07A00G  C2007 01 08.13221 01 11 34.29 +06 42 58.7          16.9 V EA019703
     K07A00G* C2007 01 08.14030 01 11 38.14 +06 42 07.1          17.0 V EA019G96
     K07A00G  C2007 01 08.14078 01 11 38.36 +06 42 03.9          16.9 V EA019703
     K07A00G  C2007 01 08.14538 01 11 40.56 +06 41 34.8          16.9 V EA019G96
     K07A00G  C2007 01 08.15042 01 11 42.93 +06 41 02.6          16.9 V EA019G96
     K07A00G  C2007 01 08.15556 01 11 45.34 +06 40 29.9          16.9 V EA019G96
     K07A00G  C2007 01 08.15793 01 11 46.50 +06 40 14.7          16.9 V EA019703
     K07A00G  C2007 01 08.19581 01 12 04.60 +06 36 13.6          17.0 V EA019G96
     K07A00G  C2007 01 08.19612 01 12 04.75 +06 36 11.6          17.0 V EA019G96
     K07A00G  C2007 01 08.19642 01 12 04.86 +06 36 09.8          16.9 V EA019G96
     K07A00G  C2007 01 08.19673 01 12 05.00 +06 36 07.8          17.0 V EA019G96
     K07A00G  C2007 01 08.21817 01 12 15.37 +06 33 51.6          17.0 V EA019G96
     K07A00G  C2007 01 08.21848 01 12 15.51 +06 33 49.8          16.9 V EA019G96
     K07A00G  C2007 01 08.21881 01 12 15.69 +06 33 47.6          17.1 V EA019G96
     K07A00G  C2007 01 08.21911 01 12 15.84 +06 33 45.7          17.0 V EA019G96
     K07A00G  C2007 01 08.49149 01 14 33.37 +06 05 42.7          16.7 R EA019355
     K07A00G  C2007 01 08.49265 01 14 33.90 +06 05 35.8                 EA019355
     K07A00G  C2007 01 08.49382 01 14 34.44 +06 05 28.6                 EA019355
     K07A00G  C2007 01 08.49498 01 14 34.95 +06 05 21.4                 EA019355

Observer details:
355 Hadano.  Observer A. Asami.  0.28-m f/5.0 reflector + CCD.
703 Catalina Sky Survey.  Observer R. A. Kowalski.  Measurers E. C. Beshore,
    E. J. Christensen, G. J. Garradd, A. R. Gibbs, A. D. Grauer, R. E. Hill,
    R. A. Kowalski, S. M. Larson, R. H. McNaught.  0.68-m Schmidt + CCD.
G96 Mt. Lemmon Survey.  Observer E. J. Christensen.  Measurers E. C. Beshore,
    E. J. Christensen, G. J. Garradd, A. R. Gibbs, A. D. Grauer, R. E. Hill,
    R. A. Kowalski, S. M. Larson, R. H. McNaught.  1.5-m reflector + CCD.

Orbital elements:
2007 AG                                             PHA, Earth MOID = 0.0042 AU
Epoch 2007 Apr. 10.0 TT = JDT 2454200.5                 MPC
M 318.81909              (2000.0)            P               Q
n   1.62862224     Peri.    5.47890     +0.32015248     +0.92554489
a   0.7154662      Node   283.31588     -0.87689089     +0.20874559
e   0.3836920      Incl.   11.99031     -0.35855929     +0.31589863
P   0.61           H   20.0           G   0.15           U   9
Residuals in seconds of arc
070108 703  0.1-  0.1-    070108 G96  0.2+  0.0     070108 G96  0.3+  0.0
070108 G96  0.1+  0.0     070108 G96  0.2+  0.1-    070108 355  0.1+  0.1-
070108 703  0.1+  0.2-    070108 G96  0.3-  0.0     070108 355  0.1+  0.1+
070108 G96  0.3+  0.1+    070108 G96  0.4-  0.0     070108 355  0.1+  0.0
070108 G96  0.0   0.0     070108 G96  0.1+  0.1-    070108 355  0.2-  0.1-
070108 G96  0.4-  0.1+    070108 G96  0.1-  0.1+
070108 703  0.2+  0.0     070108 G96  0.2+  0.0

Ephemeris:
2007 AG                  a,e,i = 0.72, 0.38, 12                  Q = 0.9900
Date    TT    R. A. (2000) Decl.     Delta      r     Elong.  Phase     V
2006 12 31    22 47.77   +30 16.4    0.0387   0.977    80.0    97.8    16.4
2007 01 02    23 42.98   +22 56.8    0.0427   0.981    85.1    92.5    16.4
2007 01 04    00 22.22   +16 21.3    0.0487   0.983    88.6    88.6    16.5
2007 01 06    00 50.12   +11 03.9    0.0561   0.986    90.7    86.1    16.7
2007 01 08    01 10.47   +06 58.2    0.0645   0.987    91.7    84.6    17.0
2007 01 10    01 25.82   +03 48.2    0.0733   0.989    92.0    83.8    17.2
2007 01 12    01 37.75   +01 19.5    0.0826   0.990    91.8    83.4    17.5
2007 01 14    01 47.29   -00 38.8    0.0920   0.990    91.3    83.4    17.7
2007 01 16    01 55.10   -02 14.5    0.102    0.990    90.5    83.6    17.9
2007 01 18    02 01.64   -03 33.3    0.111    0.989    89.6    83.9    18.1
2007 01 20    02 07.19   -04 39.1    0.121    0.988    88.6    84.4    18.3
2007 01 22    02 11.98   -05 34.9    0.130    0.987    87.4    85.0    18.5
2007 01 24    02 16.16   -06 23.0    0.140    0.985    86.2    85.6    18.7
2007 01 26    02 19.83   -07 04.9    0.149    0.983    84.9    86.4    18.9
2007 01 28    02 23.07   -07 41.9    0.158    0.980    83.6    87.2    19.0
2007 01 30    02 25.94   -08 14.9    0.167    0.977    82.2    88.0    19.2
2007 02 01    02 28.47   -08 44.8    0.176    0.973    80.8    88.9    19.3
2007 02 03    02 30.71   -09 12.2    0.185    0.969    79.3    89.9    19.4
2007 02 05    02 32.68   -09 37.3    0.193    0.964    77.8    90.9    19.6
2007 02 07    02 34.38   -10 00.7    0.202    0.959    76.3    91.9    19.7
2007 02 09    02 35.84   -10 22.7    0.210    0.953    74.7    93.0    19.8

Timothy B. Spahr             (C) Copyright 2007 MPC           M.P.E.C. 2007-A19

Read MPEC 2007-A18 Read MPEC 2007-A20


Our Web policy. Index to the CBAT/MPC/ICQ pages.


Valid HTML 4.01!